SCP
0 0 0 0 0 0 0 0 0 0 0 0 0 0 0 0 0 0 0 0 0 0 1 1 1 1 1 1 1 1 0 0 0 0 0 0 0 0 0 0 0 0 0
0 0 0 0 0 0 0 0 0 0 0 0 0 0 0 0 0 0 0 0 0 0 0 1 1 1 1 1 1 1 0 0 0 0 0 0 0 0 0 0 0 0 0
0 0 0 0 0 0 0 0 0 0 0 0 0 0 0 0 0 0 0 0 0 0 0 0 0 1 1 1 1 1 0 0 0 0 0 0 0 0 0 0 0 0 0
0 0 0 0 0 0 0 0 0 0 0 0 0 0 0 0 0 0 0 0 0 0 0 0 0 0 1 1 1 0 0 0 0 0 0 0 0 0 0 0 0 0 0
0 0 0 0 0 0 0 0 0 0 0 0 0 0 0 0 0 0 0 0 0 0 0 0 0 0 1 1 1 1 0 0 0 0 0 0 0 0 0 0 0 0 0
0 0 0 0 0 0 0 0 0 0 0 0 0 0 0 0 0 0 0 0 0 0 0 0 0 0 0 1 1 1 1 0 0 0 0 0 0 0 0 0 0 0 0
0 0 0 0 0 0 0 0 0 0 0 0 0 0 0 0 0 0 0 0 0 0 0 0 0 0 0 0 1 1 1 1 1 0 0 0 0 0 0 0 0 0 0
0 0 0 0 0 0 0 0 0 0 0 0 0 0 0 0 0 0 0 0 0 0 0 0 0 0 0 0 0 1 1 1 1 1 1 0 0 0 0 0 0 0 0
0 0 0 0 0 0 0 0 0 0 0 0 0 0 0 0 0 0 0 0 0 0 0 0 0 0 0 0 0 0 0 1 1 1 1 1 1 0 0 0 0 0 0
0 0 0 0 0 0 0 0 0 0 0 0 0 0 0 0 0 0 0 0 0 0 0 0 0 0 0 0 0 0 0 0 1 1 1 1 1 1 1 1 0 0 0
0 0 0 0 0 0 0 0 0 0 0 0 0 0 0 0 0 0 0 0 0 0 0 0 0 0 0 0 0 0 0 0 0 0 1 1 1 1 1 1 1 1 1
0 0 0 0 0 0 0 0 0 0 0 0 0 0 0 0 0 0 0 0 0 0 0 0 0 0 0 0 0 0 0 0 0 0 0 0 1 1 1 1 1 1 1
0 0 0 0 0 0 0 0 0 0 0 0 0 0 0 0 0 0 0 0 0 0 0 0 0 0 0 0 0 0 0 0 0 0 0 0 0 0 1 1 1 1 1
0 0 0 0 0 0 0 0 0 0 0 0 0 0 0 0 0 0 0 0 0 0 0 0 0 0 0 0 0 0 0 0 0 0 0 0 0 0 0 1 1 1 1
0 0 0 0 0 0 0 0 0 0 0 0 0 0 0 0 0 0 0 0 0 0 0 0 0 0 0 0 0 0 0 0 0 0 0 0 0 0 0 0 0 1 1
0 0 0 0 0 0 0 0 0 0 0 0 0 0 0 0 0 0 0 0 0 0 0 0 0 0 0 0 0 0 0 0 0 0 0 0 0 0 0 0 0 0 0
0 0 0 0 0 0 0 0 0 0 0 0 0 0 0 0 0 0 0 0 0 0 0 0 0 0 0 0 0 0 0 0 0 0 0 0 0 0 0 0 0 0 0
0 0 0 0 0 0 0 0 0 0 0 0 0 0 0 0 0 0 0 0 0 0 0 0 0 0 0 0 0 0 0 0 0 0 0 0 0 0 0 0 0 0 0
0 0 0 0 0 0 0 0 0 0 0 0 0 0 0 0 0 0 0 0 0 0 0 0 0 0 0 0 0 0 0 0 0 0 0 0 0 0 0 0 0 0 0
0 0 0 0 0 0 0 0 0 0 0 0 0 0 0 0 0 0 0 0 0 0 0 0 0 0 0 0 0 0 0 0 0 0 0 0 0 0 0 0 0 0 0
0 0 0 0 0 0 0 0 0 0 0 0 0 0 0 0 0 0 0 0 0 0 0 0 0 0 0 0 0 0 0 0 0 0 0 0 0 0 0 0 0 0 0
0 0 0 0 0 0 0 0 0 0 0 0 0 0 0 0 0 0 0 0 0 0 0 0 0 0 0 0 0 0 0 0 0 0 0 0 0 0 0 0 0 0 0
0 0 0 0 0 0 0 0 0 0 0 0 0 0 0 0 0 0 0 0 0 0 0 0 0 0 0 0 0 0 0 0 0 0 0 0 0 0 0 0 0 0 0
0 0 0 0 0 0 0 0 0 0 0 0 0 0 0 0 0 0 0 0 0 0 0 0 0 0 0 0 0 0 0 0 0 0 0 0 0 0 0 0 0 0 0
0 0 0 0 0 0 0 0 0 0 0 0 0 0 0 0 0 0 0 0 0 0 0 0 0 0 0 0 0 0 0 0 0 0 0 0 0 0 0 0 0 0 0
0 0 0 0 0 0 0 0 0 0 0 0 0 0 0 0 0 0 0 0 0 0 0 0 0 0 0 0 0 0 0 0 0 0 0 0 0 0 0 0 0 0 0
Wind_Speed
9 8 8 8 8 7 7 7 8 8 7 7 8 8 7 6 5 4 4 4 5 4 3 3 3 4 5 6 7 6 7 7 6 6 7 7 9 9 8 8 9 10 10
8 7 7 7 8 8 8 8 9 9 9 8 7 7 8 7 5 5 5 6 6 5 4 3 4 5 6 7 7 6 6 6 6 6 7 7 8 8 9 8 8 9 9
5 5 6 6 7 8 9 8 9 9 9 10 8 8 7 6 5 6 5 7 7 6 5 5 6 7 7 7 8 8 9 7 7 7 7 6 5 3 6 7 6 6 6
3 4 6 8 9 9 9 9 10 10 9 10 10 11 9 9 9 7 6 7 6 6 6 6 6 7 7 8 9 9 8 9 8 7 7 7 5 5 3 6 7 7 7
4 6 8 9 10 11 10 10 10 10 11 11 11 11 11 10 8 8 8 7 6 5 5 5 5 6 6 8 9 8 9 8 9 7 7 7 6 8 6 4 4 6 7
6 7 9 10 11 11 10 10 10 11 12 12 12 12 13 12 12 11 9 8 6 4 4 4 4 5 5 6 7 8 11 9 9 8 7 6 7 7 7 7 5 5 5
7 9 11 12 12 12 11 11 12 12 13 13 13 13 13 13 13 12 10 8 8 6 4 4 4 4 4 5 6 8 9 10 10 10 8 8 7 6 6 6 5 4 4
9 11 12 12 12 12 11 12 14 14 14 14 13 13 13 12 11 11 11 11 9 8 6 6 5 5 4 5 5 6 8 8 10 12 11 8 8 7 7 6 5 6 6
11 12 13 13 12 13 13 14 15 15 15 15 14 13 13 12 13 13 13 12 10 10 9 9 8 7 6 5 5 5 6 7 8 10 11 10 9 8 8 7 7 7 6
13 14 13 13 13 14 15 15 15 15 15 15 14 12 14 14 13 14 14 14 14 13 12 12 11 10 9 8 7 6 6 6 7 7 9 10 9 9 8 8 8 7 7
15 14 13 14 15 15 15 15 15 16 15 15 15 15 15 15 14 13 14 13 13 14 14 14 14 13 12 11 9 9 8 8 7 7 9 11 11 8 8 8 8 8 7
14 14 15 15 15 16 16 16 16 16 16 15 15 16 15 15 15 15 15 14 14 14 15 15 15 15 15 13 12 12 10 10 10 9 8 8 8 11 9 8 10 9 8
14 14 15 15 15 16 16 16 16 16 16 16 16 16 16 16 16 16 15 15 15 15 15 15 15 16 16 15 14 14 12 11 11 10 10 9 7 7 7 9 9 8 9
14 15 15 15 15 15 15 15 16 15 16 16 16 16 16 16 16 16 16 16 15 15 15 16 16 16 16 16 16 15 14 13 12 11 11 11 10 8 6 6 7 7 9
15 15 16 15 15 15 15 15 15 15 15 15 16 16 16 16 16 16 16 16 16 16 15 16 16 17 16 16 16 15 15 14 13 13 12 12 12 12 9 6 5 6 6
16 16 16 16 16 15 15 14 15 15 15 15 16 16 16 17 17 17 17 16 16 16 16 16 16 17 16 15 14 14 15 13 13 13 12 12 13 14 14 12 9 7 8
16 17 17 15 15 15 14 14 14 15 15 15 15 16 16 17 17 17 17 17 16 16 15 16 16 16 17 13 12 14 15 14 12 12 11 11 12 15 13 14 14 12 11
16 16 16 16 15 14 14 14 14 14 15 15 15 16 16 17 17 17 17 16 14 14 14 14 15 15 14 12 13 13 16 14 13 12 12 12 10 12 12 12 12 11 10
15 14 15 16 15 14 14 14 15 14 15 15 15 16 16 17 17 17 16 14 13 13 13 13 13 13 11 11 12 13 12 11 12 12 13 12 12 10 10 10 10 10 9
13 14 14 15 14 13 13 14 15 15 15 15 15 16 16 17 17 17 15 13 11 12 11 11 11 11 9 9 12 12 10 10 10 10 10 10 10 10 12 11 10 10 8
15 14 14 14 13 13 13 14 14 15 14 15 16 16 16 16 16 14 13 12 10 10 10 10 9 9 8 8 11 11 9 8 8 8 8 9 13 11 12 10 9 7 6
15 15 14 14 13 13 12 14 14 14 14 14 15 16 15 14 12 13 12 11 10 9 9 8 7 5 5 7 10 12 9 6 8 7 6 5 13 13 12 10 6 4 6
14 14 14 15 14 12 12 14 14 14 13 14 15 14 15 14 12 12 11 9 8 6 6 5 5 3 4 6 9 11 9 8 7 6 1 5 10 11 11 10 8 8 8
14 14 15 15 15 14 13 13 13 13 13 14 14 13 13 12 11 9 8 7 6 6 5 4 4 3 3 5 8 9 10 11 10 9 7 10 10 9 6 8 10 9 8
13 13 14 14 15 15 14 13 12 12 13 14 13 12 11 11 10 9 7 7 6 4 5 5 4 3 3 3 2 4 5 6 7 7 7 8 9 9 9 8 7 7 7
14 14 15 15 15 15 14 13 12 12 13 12 11 10 9 9 8 8 7 2 3 2 3 5 5 3 2 3 1 2 3 2 2 6 8 8 9 9 8 8 7 7 7
Wind_Direction
74 66 61 57 56 47 37 25 16 10 354 351 339 333 324 315 310 311 327 324 322 326 308 276 266 245 245 245 236 228 226 234 234 243 242 236 233 235 236 238 247 242 237
79 65 55 48 41 35 24 15 13 8 354 354 334 324 320 312 318 325 329 329 321 307 292 271 260 247 244 242 242 229 244 236 222 242 249 242 224 214 229 230 229 240 236
65 48 29 21 17 14 5 0 354 345 347 338 328 333 325 316 330 334 334 337 330 317 294 269 257 253 247 238 233 226 231 240 226 228 246 250 245 205 185 213 223 220 225
34 7 356 355 354 351 347 344 339 334 330 321 327 330 325 328 333 327 333 329 328 328 317 287 264 255 249 246 236 227 232 239 238 215 233 263 310 284 210 186 198 205 217
341 339 339 339 338 336 335 334 333 328 324 317 309 304 309 317 317 321 318 314 315 314 319 311 289 267 257 250 245 237 231 232 242 234 215 219 223 241 268 244 192 198 209
319 327 329 330 329 329 330 331 334 329 325 317 311 301 300 301 303 304 305 302 302 294 292 295 298 287 276 264 253 246 232 237 239 247 238 223 222 220 227 241 236 231 219
313 322 327 330 327 325 326 328 330 328 324 318 314 308 301 295 287 286 290 291 292 288 277 277 276 281 285 282 272 258 252 239 233 232 237 238 241 244 232 237 237 239 235
321 325 328 326 323 321 322 325 326 323 321 319 317 312 304 295 294 296 296 290 283 282 281 258 249 250 256 265 271 271 262 255 243 236 236 238 237 235 231 232 231 228 221
319 321 325 324 323 320 320 321 321 320 320 318 315 306 306 306 303 299 285 279 276 272 260 249 243 237 234 239 247 257 265 268 259 250 238 237 236 231 229 227 226 235 231
319 324 324 323 324 320 319 319 318 318 316 314 315 314 313 306 302 296 296 292 286 277 269 258 249 240 230 223 227 236 241 249 257 263 262 247 242 233 226 224 221 227 248
324 324 322 324 322 320 319 319 318 316 315 315 315 312 308 306 301 295 290 287 283 281 271 260 253 247 238 228 222 232 228 233 240 247 253 252 252 245 231 224 219 217 222
322 322 322 323 321 320 320 318 318 315 314 315 312 309 307 304 301 299 298 294 286 279 272 265 257 251 245 237 230 231 230 229 231 232 237 250 252 248 244 234 222 216 215
322 320 321 321 319 318 317 316 315 314 315 313 310 308 307 306 305 304 300 296 290 282 275 267 259 253 250 245 237 234 234 232 232 230 226 229 235 255 252 244 233 221 212
320 320 320 318 317 314 314 314 313 314 312 311 309 307 307 307 306 303 301 296 291 286 278 269 262 254 248 244 241 234 232 233 233 230 227 224 216 223 244 259 253 241 222
320 320 319 317 315 315 315 312 311 311 311 309 308 308 308 307 304 302 300 298 293 287 281 274 265 256 248 241 236 235 230 228 233 231 227 223 213 206 206 222 252 264 244
321 320 317 317 316 316 313 311 310 311 311 308 306 307 305 303 301 300 297 295 292 289 284 276 268 258 249 238 225 229 236 230 230 233 230 222 204 204 201 205 213 237 254
319 317 317 315 316 314 313 310 310 310 307 304 303 303 303 302 301 300 297 295 293 291 286 280 271 261 254 246 220 214 232 231 228 230 229 228 208 193 199 199 203 217 236
316 316 315 314 315 316 314 312 309 306 303 303 303 306 308 306 303 300 296 294 292 289 286 282 275 266 252 232 214 204 224 231 227 226 223 227 221 198 197 195 198 207 215
315 312 311 313 314 313 314 312 308 305 304 304 308 309 310 306 303 300 299 298 293 290 285 282 275 266 249 221 201 199 218 222 226 225 222 219 220 193 185 208 208 209 214
315 314 312 310 310 315 316 311 307 306 306 308 309 308 306 304 303 302 302 299 293 289 284 280 273 263 242 202 187 197 219 219 221 220 222 218 223 184 180 213 220 220 216
315 314 311 310 314 318 315 307 305 304 307 308 306 306 304 305 304 306 305 302 296 292 286 283 274 260 235 186 181 195 224 225 222 223 218 209 181 180 188 218 232 232 229
318 318 314 313 317 319 315 308 306 307 308 305 304 306 307 307 308 309 307 305 300 295 290 287 276 252 212 187 181 188 214 257 248 239 232 195 164 177 189 209 223 220 230
320 317 314 313 317 321 318 310 309 310 308 304 303 305 308 309 308 308 308 308 305 301 297 291 275 246 202 170 172 184 199 218 244 246 188 141 160 177 194 211 210 213 223
321 319 317 316 318 322 319 312 310 312 308 305 304 305 307 309 314 312 309 312 313 310 305 299 283 242 202 189 183 186 192 200 218 227 185 170 181 216 227 193 201 219 224
320 319 316 316 318 321 319 317 318 318 312 308 306 305 306 311 313 313 315 319 333 338 312 306 293 258 217 173 164 222 212 217 213 205 200 202 196 205 212 216 214 215 214
320 318 319 320 320 321 319 320 323 320 313 309 307 305 306 309 312 313 315 243 267 319 298 294 304 308 34 75 149 252 288 307 207 211 210 210 210 212 214 216 213 214 215